Погода в Полевском

Россия / Свердловская область     56°26′47″N   60°10′37″E
темп.,
°C
ветер,
м/с
пор.,
м/с
влажн.,
%
обл.,
%
осадки,
мм/ч
давл.,
гПа
погр.,
м
8 августа, пн
пн823:00+20ссз116968 0.0 101912
02:00+16сз118569 0.0 101911
05:00+16ссз118990 0.0 102011
08:00+18с1278100 0.0 102056
11:00+25ссв235431 0.0 1019733
14:00+27ссв354291 0.0 10192509
17:00+23ссз116575 0.1 1018106
20:00+21ссз117483 0.0 101911
9 августа, вт
вт923:00+20ююз117360 0.0 101912
02:00+16юз11875 0.0 101911
05:00+15з11914 0.0 102011
08:00+20юз11695 0.0 1020150
11:00+26св11490 0.0 10191250
14:00+28всв223814 0.0 10182370
17:00+23сз376376 0.0 1018412
20:00+20ссз22765 0.0 101829
10 августа, ср
ср1023:00+16з119237 1.3 101911
02:00+15з119546 1.3 101912
05:00+15сз11957 2.3 101911
08:00+19ссз128829 0.0 1019145
11:00+22св127586 1.1 1019285
14:00+23зюз2175100 5.4 1019309
17:00+24зсз2262100 5.5 1018412
20:00+20в118072 0.1 101811
11 августа, чт
чт1123:00+17ююз118886 0.3 101811
02:00+16юз229360 0.1 101831
05:00+15юз229460 0.1 101717
08:00+19юз258057 0.0 1017186
11:00+25ююз345312 0.0 10151155
14:00+23з3577100 2.4 10151001
17:00+20зсз3883100 3.2 1014478
20:00+17зюз399355 1.1 1014388
12 августа, пт
пт1223:00+14зюз28975 1.1 1013256
02:00+12з499795 0.0 1013474
05:00+12з4996100 0.1 1013546
08:00+12з4109373 0.1 1014723
11:00+17зсз611646 0.2 10131169
14:00+18зсз5105212 0.3 10131984
17:00+18зсз696167 0.4 10131371
20:00+13з51289100 0.0 1013857